EW3016 Weather Reports


Display with metric or nautical units.
time (UTC)temp
F
wind
direction
speed
MPH
gust
MPH
rain 1hr
in
rain 24hr
in
rain mn
in
humidity
%
barometer
mb
20260831020019 63 0.0 0.0 0.00 0.02 0.02 91 1021.7
20260831013017 64 0.0 0.0 0.00 0.02 0.02 91 1021.7
20260831010017 64 0.0 0.0 0.00 0.02 0.02 92 1021.5
20260831003017 64 0.0 0.0 0.00 0.02 0.02 92 1020.8
20260831000017 64 0.0 0.0 0.00 0.02 0.02 91 1020.1
20260830233017 65 0.0 0.0 0.00 0.02 0.02 90 1020.1
20260830230017 65 0.0 0.0 0.01 0.02 0.02 89 1020.1
20260830223017 66 0.0 0.0 0.02 0.02 0.02 87 1020.2
20260830220017 67 0.0 0.0 0.01 0.01 0.01 85 1020.6
20260830213017 68 0.0 3.0 0.00 0.00 0.00 81 1020.3
20260830210017 69 0.0 6.0 0.00 0.00 0.00 78 1020.3
20260830203017 69 0.0 6.0 0.00 0.00 0.00 78 1020.2
20260830200017 71 0.0 0.0 0.00 0.00 0.00 79 1020.1
20260830193017 72 0.0 4.0 0.00 0.00 0.00 75 1020.1
20260830190017 73 0.0 3.0 0.00 0.00 0.00 75 1020.4
20260830183017 73 248 1.0 7.0 0.00 0.00 0.00 74 1020.8
20260830180017 73 248 1.0 7.0 0.00 0.00 0.00 73 1020.9
20260830173016 73 0.0 4.0 0.00 0.00 0.00 74 1020.9
20260830170016 73 0.0 5.0 0.00 0.00 0.00 73 1021.0
20260830163016 72 0.0 6.0 0.00 0.00 0.00 74 1021.5
20260830160016 71 0.0 0.0 0.00 0.00 0.00 76 1021.7
20260830153016 69 0.0 0.0 0.00 0.00 0.00 77 1021.8
20260830150016 69 0.0 0.0 0.00 0.00 0.00 74 1021.9
20260830143016 67 0.0 0.0 0.00 0.00 0.00 75 1021.8
20260830140016 66 0.0 0.0 0.00 0.00 0.00 71 1021.7
20260830133016 66 0.0 0.0 0.00 0.00 0.00 70 1022.2
20260830130018 65 0.0 0.0 0.00 0.00 0.00 69 1022.5
20260830123016 64 0.0 0.0 0.00 0.00 0.00 71 1022.4
20260830120016 63 0.0 0.0 0.00 0.00 0.00 72 1023.0
20260830113036 62 0.0 0.0 0.00 0.00 0.00 74 1023.3
20260830110016 62 0.0 0.0 0.00 0.00 0.00 74 1023.5
20260830103016 62 0.0 0.0 0.00 0.00 0.00 73 1023.5
20260830100016 63 0.0 0.0 0.00 0.00 0.00 73 1023.8
20260830093015 63 0.0 0.0 0.00 0.00 0.00 74 1023.7
20260830090056 63 0.0 0.0 0.00 0.00 0.00 75 1023.8
20260830083016 62 0.0 0.0 0.00 0.00 0.00 75 1024.2
20260830080016 62 0.0 0.0 0.00 0.00 0.00 76 1024.2
20260830073016 61 0.0 0.0 0.00 0.00 0.00 77 1024.4
20260830070015 61 0.0 0.0 0.00 0.00 0.00 79 1024.0
20260830063017 61 0.0 0.0 0.00 0.00 0.00 79 1024.0
20260830060015 61 0.0 0.0 0.00 0.00 0.00 80 1023.9
20260830053015 61 0.0 0.0 0.00 0.00 0.00 79 1024.0
20260830050017 61 0.0 0.0 0.00 0.00 0.00 79 1024.5
20260830043017 60 0.0 0.0 0.00 0.00 0.00 80 1024.2
20260830040017 60 0.0 0.0 0.00 0.00 0.00 80 1023.9
20260830033017 59 0.0 0.0 0.00 0.00 0.00 81 1024.0
20260830030017 59 0.0 0.0 0.00 0.00 0.00 82 1024.0
20260830023017 60 0.0 0.0 0.00 0.00 0.00 83 1024.0